Riverton, WY

9:34 PM MST on January 17, 2018 (GMT -0700)
Riverton Regional

Weather History for KRIW - August, 2014

Change the Weather History Date:

Monday, August 25, 2014

  Actual Average Record
Temperature  
Mean Temperature 57 °F 67 °F  
Max Temperature 68 °F 83 °F 94 °F (2015)
Min Temperature 46 °F 52 °F 46 °F (2014)
Degree Days  
Heating Degree Days 8 1  
Month to date heating degree days 29 15  
Since 1 June heating degree days 159 146  
Since 1 July heating degree days 33 27  
Cooling Degree Days 0 4  
Month to date cooling degree days 118 156  
Year to date cooling degree days 394 451  
Since 1 June cooling degree days 379 442  
Growing Degree Days 7 (Base 50)    
Moisture  
Dew Point 43 °F    
Average Humidity 64    
Maximum Humidity 89    
Minimum Humidity 39    
Precipitation  
Precipitation 0.02 in 0.02 in 0.11 in (2006)
Month to date precipitation 1.05 0.46  
Year to date precipitation 5.27 6.71  
Snow  
Snow 0.00 in - - ()
Month to date snowfall 0.0  
Since 1 June snowfall 0.0  
Since 1 July snowfall 0.0  
Snow Depth 0.00 in    
Sea Level Pressure  
Sea Level Pressure 30.08 in    
Wind  
Wind Speed 7 mph (NE)    
Max Wind Speed 16 mph    
Max Gust Speed 20 mph    
Visibility 10 miles    
Events Rain , Thunderstorm    
T = Trace of Precipitation, MM = Missing Value Source: NWS Daily Summary

Daily Weather History Graph

Daily Weather History Graph

Search for Another Location

Airport or City:

Trip Planner

Search our weather history database for the weather conditions in past years. The results will help you decide how hot, cold, wet, or windy it might be!

Date:

Astronomy

Aug. 25, 2014 Rise Set
Actual Time 6:30 AM MDT 8:00 PM MDT
Civil Twilight 6:00 AM MDT 8:30 PM MDT
Nautical Twilight 5:24 AM MDT 9:05 PM MDT
Astronomical Twilight 4:46 AM MDT 9:43 PM MDT
Moon 6:40 AM MDT (8/25) 7:50 PM MDT (8/25)
Length of Visible Light 14h 29m
Length of Day
13h 29m
New Moon, 0% of the Moon is Illuminated
Aug 25
New Moon
Sep 2
First Quarter
Sep 8
Full
Sep 15
Last Quarter
Sep 24
New

Hourly Weather History & Observations

Time (MDT) Temp. Windchill Dew Point Humidity Pressure Visibility Wind Dir Wind Speed Gust Speed Precip Events Conditions
12:53 AM 48.0 °F - 41.0 °F 77% 30.06 in 10.0 mi North 3.5 mph - N/A   Clear
1:53 AM 46.0 °F 44.8 °F 41.0 °F 83% 30.04 in 10.0 mi East 3.5 mph - N/A   Clear
2:53 AM 48.2 °F - 39.2 °F 71% 30.15 in 10.0 mi ENE 3.5 mph - N/A   Clear
3:53 AM 48.0 °F - 41.0 °F 77% 30.02 in 10.0 mi NE 3.5 mph - N/A   Clear
4:53 AM 46.9 °F - 41.0 °F 80% 30.03 in 10.0 mi NE 5.8 mph - N/A   Mostly Cloudy
5:53 AM 46.9 °F - 41.0 °F 80% 30.05 in 10.0 mi NNE 5.8 mph - N/A   Clear
6:53 AM 46.0 °F 41.9 °F 41.0 °F 83% 30.08 in 10.0 mi NE 8.1 mph - N/A   Clear
7:53 AM 48.2 °F - 42.8 °F 82% 30.19 in 10.0 mi NE 5.8 mph - N/A   Clear
8:53 AM 53.1 °F - 42.1 °F 66% 30.10 in 10.0 mi NE 9.2 mph - N/A   Clear
9:53 AM 53.1 °F - 42.1 °F 66% 30.12 in 10.0 mi ENE 6.9 mph - N/A   Clear
10:53 AM 55.0 °F - 42.1 °F 62% 30.10 in 10.0 mi ENE 5.8 mph - N/A   Mostly Cloudy
11:53 AM 59.0 °F - 41.0 °F 51% 30.11 in 10.0 mi NE 8.1 mph - N/A   Clear
12:53 PM 59.0 °F - 42.1 °F 53% 30.08 in 10.0 mi East 8.1 mph - N/A   Scattered Clouds
1:53 PM 62.1 °F - 41.0 °F 46% 30.06 in 10.0 mi Calm Calm - N/A   Clear
2:53 PM 63.0 °F - 41.0 °F 45% 30.04 in 10.0 mi Variable 3.5 mph - N/A   Clear
3:53 PM 66.9 °F - 42.1 °F 40% 29.99 in 10.0 mi North 11.5 mph - N/A   Partly Cloudy
4:53 PM 68.0 °F - 42.1 °F 39% 29.97 in 10.0 mi NE 10.4 mph - N/A   Clear
5:53 PM 64.9 °F - 42.1 °F 43% 30.00 in 10.0 mi North 13.8 mph - N/A   Clear
6:53 PM 64.0 °F - 43.0 °F 46% 30.01 in 10.0 mi NNW 10.4 mph - N/A   Clear
7:53 PM 64.4 °F - 42.8 °F 45% 30.15 in 10.0 mi West 11.5 mph - N/A   Overcast
8:38 PM 59.0 °F - 52.0 °F 78% 30.16 in 10.0 mi South 4.6 mph - 0.02 in Rain , Thunderstorm Light Rain
8:53 PM 57.2 °F - 51.8 °F 82% 30.17 in 10.0 mi SSE 6.9 mph - N/A   Mostly Cloudy
9:53 PM 55.0 °F - 51.1 °F 86% 30.06 in 10.0 mi ESE 5.8 mph - 0.00 in   Clear
10:53 PM 54.0 °F - 50.0 °F 86% 30.06 in 10.0 mi ENE 3.5 mph - N/A   Clear
11:53 PM 51.1 °F - 48.9 °F 92% 30.08 in 10.0 mi NE 5.8 mph - N/A   Clear